Location: Lake Almanor
(40.2485°N, 121.1442°W)
Time: 08:18:01
(UTC-08:00)

STARLINK-1125 - Pass Details

Date: 02 February 2020
Orbit: 348 x 351 km, 53.0° (Epoch: 18 February)

Event Time Altitude Azimuth Distance (km) Brightness Sun altitude
Rises 19:10:55 0° 292° (WNW) 2,156 7.8 -20.6°
Reaches altitude 10° 19:13:35 10° 265° (W) 1,309 6.7 -21.1°
Maximum altitude 19:15:12 14° 231° (SW) 1,105 5.9 -21.4°
Drops below altitude 10° 19:16:49 10° 197° (SSW) 1,304 5.8 -21.7°
Enters shadow 19:17:18 - 190° (S) 1,427 5.9 -21.8°
